IW2NIA-3 Weather Reports


time (UTC)temp
C
wind
direction
speed
KPH
gust
KPH
rain 1hr
cm
rain 24hr
cm
rain mn
cm
humidity
%
barometer
mb
20260503053336 13 71 1.6 4.8 0.00 0.00 0.00 75 1018.5
20260503051846 12 74 4.8 6.4 0.00 0.00 0.00 79 1018.4
20260503050342 11 42 0.0 3.2 0.00 0.00 0.00 82 1018.4
20260503044834 10 42 3.2 4.8 0.00 0.00 0.00 83 1018.5
20260503043332 10 42 3.2 4.8 0.00 0.00 0.00 83 1018.5
20260503041830 10 42 3.2 4.8 0.00 0.00 0.00 82 1018.5
20260503040346 10 42 3.2 4.8 0.00 0.00 0.00 82 1018.4
20260503034840 10 42 1.6 4.8 0.00 0.00 0.00 82 1018.4
20260503033336 10 42 3.2 6.4 0.00 0.00 0.00 82 1018.4
20260503031834 10 42 3.2 6.4 0.00 0.00 0.00 82 1018.4
20260503030327 10 42 1.6 4.8 0.00 0.00 0.00 81 1018.5
20260503024837 10 42 4.8 4.8 0.00 0.00 0.00 80 1018.5
20260503023334 10 42 3.2 6.4 0.00 0.00 0.00 81 1018.6
20260503021830 10 19 4.8 6.4 0.00 0.00 0.00 80 1018.7
20260503020344 10 13 4.8 9.7 0.00 0.00 0.00 79 1018.8
20260503014838 11 33 3.2 8.0 0.00 0.00 0.00 78 1018.8
20260503013346 11 62 0.0 3.2 0.00 0.00 0.00 78 1018.8
20260503011837 11 62 4.8 6.4 0.00 0.00 0.00 79 1018.8
20260503010333 11 62 0.0 0.0 0.00 0.00 0.00 79 1019.0
20260503004830 11 62 0.0 0.0 0.00 0.00 0.00 78 1019.1
20260503003343 11 62 3.2 4.8 0.00 0.00 0.00 77 1019.3
20260503001837 11 62 3.2 4.8 0.00 0.00 0.00 75 1019.4
20260503000330 12 62 1.6 4.8 0.00 0.00 0.00 75 1019.6
20260502234844 12 62 0.0 0.0 0.00 0.00 0.00 75 1019.7
20260502233340 12 62 3.2 4.8 0.00 0.00 0.00 75 1019.8
20260502231835 12 62 3.2 4.8 0.00 0.00 0.00 73 1019.9
20260502230329 12 62 4.8 6.4 0.00 0.00 0.00 73 1019.9
20260502224828 12 62 3.2 4.8 0.00 0.00 0.00 73 1020.0
20260502223327 12 62 3.2 4.8 0.00 0.00 0.00 72 1020.1
20260502221840 12 63 4.8 6.4 0.00 0.00 0.00 71 1020.0
20260502220339 12 72 3.2 6.4 0.00 0.00 0.00 70 1020.1
20260502214834 12 73 1.6 4.8 0.00 0.00 0.00 69 1020.0
20260502213327 12 132 3.2 4.8 0.00 0.00 0.00 70 1020.0
20260502211842 12 198 0.0 4.8 0.00 0.00 0.00 70 1020.1
20260502210337 13 199 1.6 4.8 0.00 0.00 0.00 68 1020.2
20260502204828 13 199 0.0 3.2 0.00 0.00 0.00 68 1020.2
20260502203343 14 199 1.6 3.2 0.00 0.00 0.00 68 1020.2
20260502201840 15 199 0.0 0.0 0.00 0.00 0.00 67 1020.1
20260502200333 15 199 0.0 0.0 0.00 0.00 0.00 66 1020.1
20260502194843 15 199 1.6 6.4 0.00 0.00 0.00 64 1020.0
20260502193333 16 199 0.0 0.0 0.00 0.00 0.00 61 1019.9
20260502191827 17 199 0.0 0.0 0.00 0.00 0.00 59 1019.9
20260502190339 17 199 0.0 0.0 0.00 0.00 0.00 57 1019.8
20260502184837 17 201 0.0 0.0 0.00 0.00 0.00 55 1019.6
20260502183327 18 201 0.0 0.0 0.00 0.00 0.00 51 1019.7
20260502181824 19 201 0.0 0.0 0.00 0.00 0.00 47 1019.5
20260502180339 20 200 0.0 0.0 0.00 0.00 0.00 46 1019.6
20260502170337 21 243 4.8 9.7 0.00 0.00 0.00 39 1019.5
20260502163328 22 220 3.2 9.7 0.00 0.00 0.00 39 1019.6
20260502161843 22 208 4.8 9.7 0.00 0.00 0.00 37 1019.8
20260502160339 22 247 4.8 11.3 0.00 0.00 0.00 36 1020.0
20260502151827 23 213 8.0 16.1 0.00 0.00 0.00 39 1020.2
20260502150342 22 217 4.8 11.3 0.00 0.00 0.00 38 1020.3
20260502130341 21 237 4.8 19.3 0.00 0.00 0.00 38 1022.2
20260502123343 21 200 4.8 11.3 0.00 0.00 0.00 41 1022.5
20260502121838 21 241 9.7 16.1 0.00 0.00 0.00 41 1022.8
20260502120331 21 232 3.2 17.7 0.00 0.00 0.00 39 1022.9
20260502114846 20 49 1.6 9.7 0.00 0.00 0.00 42 1023.1
20260502113342 20 240 9.7 14.5 0.00 0.00 0.00 42 1023.4
20260502111836 20 288 6.4 17.7 0.00 0.00 0.00 42 1023.6
20260502110331 20 223 1.6 9.7 0.00 0.00 0.00 48 1023.8
20260502104844 20 198 12.9 20.9 0.00 0.00 0.00 42 1024.0
20260502103338 19 240 1.6 8.0 0.00 0.00 0.00 44 1024.4
20260502101830 19 238 9.7 17.7 0.00 0.00 0.00 44 1024.5
20260502100344 19 211 6.4 14.5 0.00 0.00 0.00 48 1024.8
20260502090343 17 219 8.0 9.7 0.00 0.00 0.00 53 1025.5
20260502070330 15 207 1.6 4.8 0.00 0.00 0.00 60 1025.7
20260502064830 15 103 0.0 4.8 0.00 0.00 0.00 63 1025.8
20260502063347 15 76 1.6 6.4 0.00 0.00 0.00 66 1025.7
20260502061840 14 75 0.0 4.8 0.00 0.00 0.00 69 1025.8
20260502060334 13 78 1.6 6.4 0.00 0.00 0.00 72 1025.6
20260502054830 12 59 3.2 4.8 0.00 0.00 0.00 75 1025.7